Showing default

SERVIS 2, 36588

Orbit data source: Space-Track

SERVIS 2, 36588 is a payload satellite owned by USEF (JP) in SSO that was launched on Wed, 02 Jun 2010 UTC via an ROKOT launch vehicle from the Plesetsk Missile And Space Complex (PKMTR). Payload-class satellites include a variety of spacecraft equipped with specific instruments for various scientific and technological missions. These include communications satellites like Starlink; space stations such as the ISS; scientific satellites like the Hubble; Earth observation satellites from companies like Planet Labs, Umbra, and HawkEye 360; GPS; miniature CubeSats for education and research; and military/defense satellites.

Loading next visibility...
Identifier
36588, 2010-023A
Orbit
SSO
Last TLE update
14 hours ago
Origin
Manufacturer
MELCO
Mission
Commercial Technology
Bus & Motor
SERVIS, Unknown motor
Mass
740 kg wet, ~700 kg dry
Launch date (UTC)
2010-06-02 (15 years ago)
Launch vehicle
ROKOT
Launch site
Plesetsk Missile And Space Complex (PKMTR)
Object type
Payload
Rocket body
Debris
Shape & HBR
Box + 2 Pan, 10.2 m
Radar Cross Section
8.092 m², Large (>1 m²)

Expand to show TLE details & history

TLE from 14 hours ago
0 SERVIS 2
1 36588U 10023A   25187.54499330 -.00000007  00000-0  99285-4 0  9991
2 36588 100.4289  15.2638 0017134 344.8613  83.3290 13.16027766725307
Epoch: 2025-07-06T13:04Z
TLE epoch observation values (Epoch: 2025-07-06T13:04:47.421Z)
Latitude
66.19372°
Longitude
-130.22509°
Altitude
1,209.774 km
Speed
7.256 km/s
True Right ascension
23h 22m 57s
True Declination
66° 04' 27"
Sunlit
Object was in daylight at epoch
Visualization orbit readout
Latitude
-40.91648°
Longitude
-95.99195°
Altitude
1,203.657 km
Speed
7.257 km/s
Apparent Right ascension
02h 20m 29s
Apparent Declination
-40° 48' 38"
Sunlit
Object is in daylight
Visualization observer readout
Local Sidereal Time
15:08:08
Azimuth
99.474° ESE
Elevation
-80.887°
Doppler factor
1
Orbital elements
Apogee altitude
1,210.295 km
Perigee altitude
1,184.336 km
Semi-major axis
7,575.453 km
Eccentricity
0.00171
Inclination
100.4289°
RAAN
15.2638°
Arg. of periapsis
344.8613°
True anomaly
Unknown
Mean anomaly
83.329°
Eccentric anomaly
Unknown
Mean motion
3.29178 °/min
Orbital period
109.36 mins
BSTAR
0.000099285
Loading maneuver chart data...
Loading SW <> Apogee altitude chart data...
Loading historical data...
Loading historical data...
Loading historical data...
Loading historical data...
Loading historical data...
Loading historical data...
Loading historical data...
Other satellites on launch #23 in the year 2010 (2010-06-02 UTC)

SERVIS 2 Visibility forecast

Observer location: undefined°, undefined°

Span
Click to sort rows by Start time (UTC) header in descending order
Start Az.
Max El. time (UTC)
Max El. Az.
Max El.
End time (UTC)
End Az.
9 mins2025-07-07 10:48:14.481Z97.155° ESE2025-07-07 10:52:14.481Z58.656° ENE20.204°2025-07-07 10:57:14.481Z12.42° NNE
12 mins2025-07-07 12:34:14.481Z171.808° S2025-07-07 12:39:14.481Z246.964° WSW44.079°2025-07-07 12:46:14.481Z340.965° N
9 mins2025-07-08 00:03:14.481Z53.632° ENE2025-07-08 00:07:14.481Z92.328° ESE19.87°2025-07-08 00:12:14.481Z138.134° SSE
12 mins2025-07-08 01:50:14.481Z8.485° NNE2025-07-08 01:55:14.481Z305.254° NW43.102°2025-07-08 02:02:14.481Z208.503° SW
|